Simultaneous Nadir Overpasses (SNOs) Predictions

Prediction of SNOs between AQUA and METOP-A Satellite Orbit:

Table of predicted SNOs for the next 14.0 days since TLE Epoch: 11/14/2014
Index Date (AQUA) Time (AQUA) Lat,Lon (AQUA) SZA (AQUA ) Date (METOP-A) Time (METOP-A) Lat,Lon (METOP-A) SZA (METOP-A ) Distance(km) Time Diff (sec)
1 11/15/2014 14:04:21 -73.03, 144.74 88.52 11/15/2014 14:03:16 -73.01, 141.74 88.51 97.45 65
2 11/15/2014 14:54:03 73.78, -49.19 92.26 11/15/2014 14:53:40 73.79, -49.15 92.27 1.87 23
3 11/15/2014 15:43:30 -73.86, 118.29 87.66 11/15/2014 15:44:21 -73.84, 118.28 87.68 1.84 51
4 11/18/2014 09:38:45 -73.31,-149.39 87.54 11/18/2014 09:37:36 -73.24,-151.36 87.59 63.40 69
5 11/18/2014 10:28:22 73.80, 17.19 92.97 11/18/2014 10:28:04 73.82, 17.30 92.99 3.72 18
6 11/18/2014 11:17:49 -73.87,-175.32 86.95 11/18/2014 11:18:45 -73.87,-175.25 86.96 2.37 56
7 11/21/2014 05:13:07 -73.52, -83.41 86.68 11/21/2014 05:11:56 -73.46, -84.47 86.73 34.21 71
8 11/21/2014 06:02:40 73.81, 83.60 93.63 11/21/2014 06:02:29 73.78, 83.62 93.60 3.31 11
9 11/21/2014 06:52:07 -73.88,-108.91 86.30 11/21/2014 06:53:09 -73.88,-108.81 86.30 3.19 62
10 11/24/2014 00:47:27 -73.72, -17.41 85.87 11/24/2014 00:46:14 -73.71, -17.47 85.88 2.03 73
11 11/24/2014 01:36:56 73.81, 150.04 94.22 11/24/2014 01:36:52 73.78, 150.03 94.20 2.47 4
12 11/24/2014 02:26:23 -73.87, -42.46 85.71 11/24/2014 02:27:33 -73.84, -42.50 85.74 3.40 70
13 11/26/2014 20:21:44 -73.76, 48.95 85.29 11/26/2014 20:20:37 -73.76, 49.05 85.28 3.38 67
14 11/26/2014 21:11:12 73.79,-143.49 94.76 11/26/2014 21:11:16 73.78,-143.57 94.75 2.78 4




NCC Satellite Simultaneous Nadir Overpasses (SNOs) Prediction Service
